Weather History for Challis, ID

Change the Weather History Date:

Tuesday, September 10, 2013

  Actual Average Record
Temperature  
Mean Temperature 61 °F 58 °F  
Max Temperature 81 °F 76 °F 88 °F (1966)
Min Temperature 41 °F 41 °F 30 °F (1916)
Degree Days  
Heating Degree Days 4 7  
Month to date heating degree days 9 59  
Since 1 July heating degree days 15 132  
Growing Degree Days 13 (Base 50)    
Moisture  
Dew Point 35 °F    
Average Humidity 43    
Maximum Humidity 71    
Minimum Humidity 15    
Precipitation  
Precipitation 0.00 in 0.03 in 0.69 in (1927)
Month to date precipitation 0.24 0.26  
Year to date precipitation 2.75 7.65  
Sea Level Pressure  
Sea Level Pressure 30.01 in    
Wind  
Wind Speed 1 mph (NW)    
Max Wind Speed 8 mph    
Max Gust Speed 10 mph    
Visibility 10 miles    
Events      
T = Trace of Precipitation, MM = Missing Value Source: NWS Daily Summary

Daily Weather History Graph

Daily Weather History Graph

Search for Another Location

Airport:

Trip Planner

Search our weather history database for the weather conditions in past years. The results will help you decide how hot, cold, wet, or windy it might be!

Date:

Astronomy

Sep. 10, 2013 Rise Set
Actual Time 7:10 AM MDT 7:56 PM MDT
Civil Twilight 6:40 AM MDT 8:25 PM MDT
Nautical Twilight 6:05 AM MDT 9:00 PM MDT
Astronomical Twilight 5:29 AM MDT 9:36 PM MDT
Moon 12:54 PM MDT (9/10) 10:48 PM MDT (9/10)
Length of Visible Light 13h 44m
Length of Day
12h 45m
Waxing Crescent, 29% of the Moon is Illuminated
Sep 10
Waxing Crescent
Sep 12
First Quarter
Sep 19
Full
Sep 26
Last Quarter
Oct 4
New

Hourly Weather History & Observations

Time (MDT) Temp. Dew Point Humidity Pressure Visibility Wind Dir Wind Speed Gust Speed Precip Events Conditions
12:55 AM 53.1 °F 36.0 °F 52% 29.98 in 10.0 mi Calm Calm - N/A   Clear
1:55 AM 52.0 °F 36.0 °F 54% 30.00 in 10.0 mi Calm Calm - N/A   Clear
2:55 AM 46.9 °F 37.0 °F 68% 30.01 in 10.0 mi Calm Calm - N/A   Clear
3:55 AM 50.0 °F 36.0 °F 59% 30.01 in 10.0 mi Calm Calm - N/A   Clear
4:55 AM 48.0 °F 35.1 °F 61% 30.01 in 10.0 mi Calm Calm - N/A   Clear
5:55 AM 48.0 °F 36.0 °F 63% 30.04 in 10.0 mi Calm Calm - N/A   Clear
6:55 AM 45.0 °F 34.0 °F 65% 30.07 in 10.0 mi Calm Calm - N/A   Clear
7:55 AM 46.0 °F 37.0 °F 71% 30.10 in 10.0 mi Calm Calm - N/A   Clear
8:55 AM 52.0 °F 37.9 °F 59% 30.10 in 10.0 mi Calm Calm - N/A   Clear
9:55 AM 57.0 °F 39.0 °F 51% 30.07 in 10.0 mi Calm Calm - N/A   Clear
10:55 AM 62.1 °F 37.9 °F 41% 30.06 in 10.0 mi Calm Calm - N/A   Clear
11:55 AM 66.0 °F 39.9 °F 38% 30.04 in 10.0 mi Calm Calm - N/A   Clear
12:55 PM 72.0 °F 37.9 °F 29% 30.01 in 10.0 mi NNE 3.5 mph - N/A   Clear
1:55 PM 73.9 °F 37.0 °F 26% 29.99 in 10.0 mi Calm Calm - N/A   Clear
2:55 PM 77.0 °F 28.9 °F 17% 29.97 in 10.0 mi WNW 4.6 mph - N/A   Clear
3:55 PM 78.1 °F 30.9 °F 18% 29.94 in 10.0 mi South 4.6 mph - N/A   Clear
4:55 PM 80.1 °F 30.9 °F 17% 29.93 in 10.0 mi Variable 3.5 mph - N/A   Clear
5:55 PM 81.0 °F 28.9 °F 15% 29.91 in 10.0 mi Calm Calm - N/A   Clear
6:55 PM 80.1 °F 30.9 °F 17% 29.93 in 10.0 mi NNW 3.5 mph - N/A   Clear
7:55 PM 71.1 °F 30.9 °F 23% 29.96 in 10.0 mi West 4.6 mph - N/A   Clear
8:55 PM 64.0 °F 33.1 °F 31% 29.99 in 10.0 mi WNW 5.8 mph - N/A   Clear
9:55 PM 63.0 °F 35.1 °F 35% 29.99 in 10.0 mi Calm Calm - N/A   Clear
10:55 PM 61.0 °F 33.1 °F 35% 30.00 in 10.0 mi Calm Calm - N/A   Clear
11:55 PM 60.1 °F 33.1 °F 36% 30.01 in 10.0 mi Calm Calm - N/A   Clear